This is the latest recevied weather packets stored in our database for station/object OE3MNS-13. If no packets are shown the sender has not sent any weather packets the latest 10 day(s).
| Time | Temp. | Humidity | Pressure | Rain* | Wind** | Luminosity | Snow |
|---|---|---|---|---|---|---|---|
| 1778328621 | 21.67° C | 44% | 1017.8 hPa | 1.02 mm | - | 795 W/m² | - |
| 1778328316 | 21.67° C | 45% | 1017.8 hPa | 1.02 mm | - | 784 W/m² | - |
| 1778327719 | 21.67° C | 43% | 1017.8 hPa | 1.02 mm | - | 804 W/m² | - |
| 1778327121 | 21.67° C | 43% | 1017.9 hPa | 1.02 mm | - | 798 W/m² | - |
| 1778326517 | 21.67° C | 45% | 1017.9 hPa | 1.02 mm | - | 804 W/m² | - |
| 1778325921 | 20.56° C | 46% | 1018 hPa | 1.02 mm | - | 803 W/m² | - |
| 1778325321 | 20.56° C | 46% | 1018.3 hPa | 1.02 mm | - | 796 W/m² | - |
| 1778324721 | 20.56° C | 48% | 1018.3 hPa | 1.02 mm | - | 804 W/m² | - |
| 1778324419 | 20.56° C | 46% | 1018.3 hPa | 1.02 mm | - | 800 W/m² | - |
| 1778324118 | 20.56° C | 48% | 1018.5 hPa | 1.02 mm | - | 798 W/m² | - |
| 1778323817 | 19.44° C | 49% | 1018.4 hPa | 1.02 mm | - | 801 W/m² | - |
| 1778323221 | 20° C | 50% | 1018.4 hPa | 1.02 mm | - | 802 W/m² | - |
| 1778322919 | 20° C | 49% | 1018.6 hPa | 1.02 mm | - | 794 W/m² | - |
| 1778322618 | 20° C | 48% | 1018.6 hPa | 1.02 mm | - | 792 W/m² | - |
| 1778322021 | 20° C | 48% | 1018.7 hPa | 1.02 mm | - | 783 W/m² | - |
| 1778321421 | 18.89° C | 52% | 1018.8 hPa | 1.02 mm | - | 772 W/m² | - |
| 1778321120 | 19.44° C | 50% | 1018.9 hPa | 1.02 mm | - | 767 W/m² | - |
| 1778320520 | 18.89° C | 51% | 1018.8 hPa | 1.02 mm | - | 758 W/m² | - |
| 1778320219 | 18.89° C | 51% | 1019 hPa | 1.02 mm | - | 761 W/m² | - |
| 1778319622 | 18.33° C | 54% | 1019 hPa | 1.02 mm | - | 736 W/m² | - |
| 1778319317 | 18.33° C | 53% | 1018.9 hPa | 1.02 mm | - | 738 W/m² | - |
| 1778318719 | 18.33° C | 53% | 1018.9 hPa | 1.02 mm | - | 718 W/m² | - |
| 1778318121 | 18.33° C | 53% | 1019.2 hPa | 1.02 mm | - | 703 W/m² | - |
| 1778317521 | 17.78° C | 53% | 1019.1 hPa | 1.02 mm | - | 681 W/m² | - |
| 1778317220 | 17.78° C | 56% | 1019.3 hPa | 1.02 mm | - | 669 W/m² | - |
* Rain latest hour (hover to see other rain measurements)
** Current wind speed in m/s (hover to see current wind gust speed)